Home   Weather   Edinburgh   Past weeks

Flag for United Kingdom Past Weather in Edinburgh, Scotland, United Kingdom — Yesterday and Last 2 Weeks

Now
45 °F

Passing clouds.


Feels Like: 42 °F
Forecast: 35 / 52 °F
Wind: 5 mph from East

Location: Edinburgh Airport

Current Time: Apr 27, 2017 at 9:50:53 pm

Latest Report: Apr 27, 2017 at 9:20 pm


Visibility: N/A

Pressure: 30.04 "Hg

Humidity: 76%

Dew Point: 37 °F

Location of EdinburghLocation

Past Weather in Edinburgh — Graph

°F

Edinburgh Temperature Yesterday

Maximum temperature yesterday: 48 °F (at 5:50 pm)
Minimum temperature yesterday: 34 °F (at 2:50 am)
Average temperature yesterday: 42 °F

High & Low Weather Summary for the Past Weeks

 TemperatureHumidityPressure
High59 °F (Apr 19, 5:20 pm)100% (Apr 17, 5:20 am)30.54 "Hg (Apr 17, 5:20 am)
Low25 °F (Apr 18, 4:50 am)37% (Apr 24, 7:20 pm)29.80 "Hg (Apr 14, 4:50 pm)
Average46 °F69%30.17 "Hg
* Reported Apr 12 7:20 pm — Apr 27 7:50 pm, Edinburgh, Weather by CustomWeather, © 2017

Note: Actual official high and low records may vary slightly from our data, if they occured in-between our weather recording intervals... More about our weather records

Advertising

Edinburgh Weather History for the Previous 24 Hours

Scroll right to see more
 ConditionsComfort  
Time TempWeatherWind HumidityBarometerVisibility
7:50 pm
Thu, Apr 27
52 °FScattered clouds.7 mph58%30.01 "HgN/A
7:20 pm54 °FPartly sunny.7 mph54%30.01 "HgN/A
6:50 pm54 °FPartly sunny.13 mph54%30.01 "HgN/A
6:20 pm54 °FPartly sunny.10 mph58%30.01 "HgN/A
5:50 pm55 °FLight rain. Partly sunny.8 mph55%29.98 "HgN/A
5:20 pm55 °FScattered showers. Partly sunny.9 mph55%29.98 "HgN/A
4:50 pm57 °FPartly sunny.9 mph51%29.98 "HgN/A
4:20 pm55 °FScattered showers. Scattered clouds.10 mph55%29.98 "HgN/A
3:50 pm57 °FPartly sunny.10 mph51%29.98 "HgN/A
3:20 pm57 °FPartly sunny.8 mph51%29.98 "HgN/A
2:50 pm55 °FPartly sunny.8 mph55%29.98 "HgN/A
2:20 pm55 °FPartly sunny.9 mph55%29.98 "HgN/A
1:50 pm55 °FPartly sunny.9 mph51%29.98 "HgN/A
1:20 pm57 °FScattered clouds.8 mph51%29.98 "HgN/A
12:50 pm57 °FPartly sunny.12 mph48%29.98 "HgN/A
12:20 pm54 °FPartly sunny.9 mph54%29.98 "HgN/A
11:50 am54 °FPartly sunny.8 mph54%30.01 "HgN/A
11:20 am55 °FScattered clouds.10 mph51%30.01 "HgN/A
10:50 am52 °FPassing clouds.13 mph62%30.01 "HgN/A
10:20 am52 °FPassing clouds.10 mph62%30.01 "HgN/A
9:50 am50 °FPassing clouds.12 mph62%30.01 "HgN/A
9:20 am50 °FPassing clouds.12 mph62%30.01 "HgN/A
8:50 am48 °FPassing clouds.12 mph66%30.01 "HgN/A
8:20 am48 °FPartly sunny.10 mph66%30.01 "HgN/A
7:50 am46 °FPassing clouds.7 mph76%30.01 "HgN/A
7:20 am45 °FQuite cool.10 mph81%30.01 "HgN/A
6:50 am43 °FPassing clouds.8 mph87%30.01 "HgN/A
6:20 am43 °FPartly sunny.9 mph87%30.01 "HgN/A
5:50 am41 °FScattered clouds.6 mph87%30.01 "HgN/A
5:20 am43 °FLight rain. Passing clouds.7 mph87%30.04 "HgN/A
4:50 am43 °FLight rain. Passing clouds.8 mph87%30.04 "HgN/A
4:20 am45 °FLight rain. Passing clouds.9 mph81%30.04 "HgN/A
3:50 am43 °FLight rain. Passing clouds.9 mph81%30.04 "HgN/A
3:20 am43 °FLight rain. Passing clouds.6 mph87%30.07 "HgN/A
2:50 am43 °FLight rain. Passing clouds.7 mph87%30.07 "HgN/A
2:20 am43 °FLight rain. Passing clouds.9 mph87%30.07 "HgN/A
1:50 am43 °FLight rain. Passing clouds.8 mph81%30.07 "HgN/A
1:20 am43 °FLight rain. Passing clouds.7 mph81%30.09 "HgN/A
12:50 am43 °FPassing clouds.7 mph76%30.09 "HgN/A
12:20 am43 °FLight rain. Passing clouds.7 mph76%30.09 "HgN/A
11:50 pm
Wed, Apr 26
43 °FLight rain. Passing clouds.7 mph76%30.09 "HgN/A
11:20 pm45 °FLight rain. Passing clouds.7 mph71%30.09 "HgN/A
10:50 pm45 °FPassing clouds.6 mph66%30.09 "HgN/A
10:20 pm45 °FClear.7 mph66%30.09 "Hg10 mi
9:50 pm39 °FClear.6 mph75%30.09 "Hg10 mi
9:20 pm41 °FClear.6 mph66%30.09 "Hg10 mi
Weather by CustomWeather, © 2017

See weather overviewHow to use our weather pages